Sheldon, IA

9:16 AM CDT on August 30, 2016 (GMT -0500)
Sheldon Municipal

Weather History for KSHL - April, 2014

Change the Weather History Date:

Monday, April 21, 2014

  Actual Average Record
Temperature  
Mean Temperature 56 °F -  
Max Temperature 71 °F 60 °F 93 °F (1980)
Min Temperature 41 °F 36 °F 21 °F (1966)
Degree Days  
Heating Degree Days 8    
Growing Degree Days 6 (Base 50)    
Moisture  
Dew Point 38 °F    
Average Humidity 51    
Maximum Humidity 94    
Minimum Humidity 17    
Precipitation  
Precipitation 0.00 in - - ()
Sea Level Pressure  
Sea Level Pressure 30.01 in    
Wind  
Wind Speed 15 mph (NNW)    
Max Wind Speed 31 mph    
Max Gust Speed 41 mph    
Visibility 10 miles    
Events      
Averages and records for this station are not official NWS values.
T = Trace of Precipitation, MM = Missing Value Source: NWS Daily Summary

Daily Weather History Graph

Daily Weather History Graph

Search for Another Location

Airport or City:

Trip Planner

Search our weather history database for the weather conditions in past years. The results will help you decide how hot, cold, wet, or windy it might be!

Date:

Astronomy

Apr. 21, 2014 Rise Set
Actual Time 6:31 AM CDT 8:13 PM CDT
Civil Twilight 6:01 AM CDT 8:43 PM CDT
Nautical Twilight 5:24 AM CDT 9:20 PM CDT
Astronomical Twilight 4:45 AM CDT 9:59 PM CDT
Moon 1:46 AM CDT (4/21) 11:57 AM CDT (4/21)
Length of Visible Light 14h 42m
Length of Day
13h 41m
Waning Gibbous, 57% of the Moon is Illuminated
Apr 21
Waning Gibbous
Apr 22
Last Quarter
Apr 29
New
May 6
First Quarter
May 14
Full

Hourly Weather History & Observations

Time (CDT) Temp. Windchill Dew Point Humidity Pressure Visibility Wind Dir Wind Speed Gust Speed Precip Events Conditions
12:15 AM 62.6 °F - 53.6 °F 72% 29.90 in 10.0 mi South 12.7 mph - N/A   Partly Cloudy
12:35 AM 60.8 °F - 53.6 °F 77% 29.90 in 10.0 mi South 11.5 mph - N/A   Mostly Cloudy
12:55 AM 59.0 °F - 53.6 °F 82% 29.90 in 10.0 mi South 10.4 mph - N/A   Scattered Clouds
1:15 AM 59.0 °F - 53.6 °F 82% 29.90 in 10.0 mi South 11.5 mph - N/A   Clear
1:35 AM 59.0 °F - 53.6 °F 82% 29.90 in 10.0 mi South 12.7 mph - N/A   Scattered Clouds
1:55 AM 59.0 °F - 53.6 °F 82% 29.89 in 10.0 mi SSW 13.8 mph - N/A   Mostly Cloudy
2:15 AM 59.0 °F - 53.6 °F 82% 29.89 in 10.0 mi South 12.7 mph - N/A   Mostly Cloudy
2:35 AM 59.0 °F - 53.6 °F 82% 29.89 in 10.0 mi SSW 9.2 mph - N/A   Mostly Cloudy
2:55 AM 59.0 °F - 53.6 °F 82% 29.88 in 10.0 mi SSW 8.1 mph - N/A   Scattered Clouds
3:15 AM 59.0 °F - 53.6 °F 82% 29.88 in 10.0 mi SSW 9.2 mph - N/A   Clear
3:35 AM 59.0 °F - 53.6 °F 82% 29.89 in 10.0 mi SW 11.5 mph 17.3 mph N/A   Clear
3:55 AM 57.2 °F - 53.6 °F 88% 29.90 in 10.0 mi SW 9.2 mph - N/A   Partly Cloudy
4:15 AM 57.2 °F - 53.6 °F 88% 29.90 in 10.0 mi SW 8.1 mph - N/A   Mostly Cloudy
4:35 AM 59.0 °F - 53.6 °F 82% 29.89 in 10.0 mi SW 6.9 mph - N/A   Overcast
4:55 AM 57.2 °F - 53.6 °F 88% 29.91 in 10.0 mi WSW 9.2 mph - N/A   Scattered Clouds
5:15 AM 53.6 °F - 51.8 °F 94% 29.91 in 10.0 mi WSW 4.6 mph - N/A   Clear
5:35 AM 53.6 °F - 51.8 °F 94% 29.91 in 10.0 mi West 5.8 mph - N/A   Clear
5:55 AM 51.8 °F - 50.0 °F 94% 29.91 in 8.0 mi West 5.8 mph - N/A   Clear
6:15 AM 50.0 °F - 48.2 °F 94% 29.92 in 9.0 mi NW 4.6 mph - N/A   Clear
6:35 AM 50.0 °F - 48.2 °F 94% 29.94 in 6.0 mi NW 5.8 mph - N/A   Clear
6:55 AM 50.0 °F - 48.2 °F 94% 29.95 in 9.0 mi North 6.9 mph - N/A   Clear
7:15 AM 53.6 °F - 48.2 °F 82% 29.96 in 10.0 mi North 11.5 mph - N/A   Clear
7:35 AM 55.4 °F - 46.4 °F 72% 29.97 in 10.0 mi North 13.8 mph - N/A   Clear
7:55 AM 55.4 °F - 42.8 °F 63% 29.99 in 10.0 mi North 11.5 mph 17.3 mph N/A   Clear
8:15 AM 55.4 °F - 41.0 °F 58% 30.00 in 10.0 mi North 13.8 mph 19.6 mph N/A   Clear
8:35 AM 57.2 °F - 39.2 °F 51% 30.01 in 10.0 mi North 13.8 mph - N/A   Clear
8:55 AM 57.2 °F - 39.2 °F 51% 30.02 in 10.0 mi North 9.2 mph - N/A   Clear
9:15 AM 62.6 °F - 37.4 °F 39% 30.02 in 10.0 mi North 17.3 mph - N/A   Clear
9:35 AM 64.4 °F - 33.8 °F 32% 30.02 in 10.0 mi North 23.0 mph 29.9 mph N/A   Clear
9:55 AM 64.4 °F - 33.8 °F 32% 30.02 in 10.0 mi North 24.2 mph 31.1 mph N/A   Clear
10:15 AM 66.2 °F - 30.2 °F 26% 30.02 in 10.0 mi North 27.6 mph 34.5 mph N/A   Clear
10:35 AM 66.2 °F - 30.2 °F 26% 30.02 in 10.0 mi North 25.3 mph 35.7 mph N/A   Clear
10:55 AM 66.2 °F - 30.2 °F 26% 30.03 in 10.0 mi North 21.9 mph 29.9 mph N/A   Clear
11:15 AM 66.2 °F - 28.4 °F 24% 30.04 in 10.0 mi North 27.6 mph 35.7 mph N/A   Clear
11:35 AM 68.0 °F - 28.4 °F 23% 30.04 in 10.0 mi North 23.0 mph 32.2 mph N/A   Clear
11:55 AM 68.0 °F - 28.4 °F 23% 30.04 in 10.0 mi North 25.3 mph 36.8 mph N/A   Clear
12:15 PM 69.8 °F - 26.6 °F 20% 30.04 in 10.0 mi NNW 23.0 mph 29.9 mph N/A   Clear
12:35 PM 69.8 °F - 26.6 °F 20% 30.04 in 10.0 mi NNW 23.0 mph 41.4 mph N/A   Clear
12:55 PM 68.0 °F - 26.6 °F 21% 30.04 in 10.0 mi NNW 25.3 mph 38.0 mph N/A   Clear
1:15 PM 69.8 °F - 26.6 °F 20% 30.03 in 9.0 mi NW 31.1 mph 36.8 mph N/A   Clear
1:35 PM 69.8 °F - 23.0 °F 17% 30.03 in 9.0 mi NNW 26.5 mph 35.7 mph N/A   Clear
1:55 PM 69.8 °F - 26.6 °F 20% 30.02 in 10.0 mi North 23.0 mph 31.1 mph N/A   Clear
2:15 PM 69.8 °F - 28.4 °F 21% 30.03 in 10.0 mi NNW 26.5 mph 38.0 mph N/A   Clear
2:35 PM 71.6 °F - 28.4 °F 20% 30.03 in 10.0 mi NNW 21.9 mph 36.8 mph N/A   Clear
2:55 PM 69.8 °F - 32.0 °F 25% 30.03 in 10.0 mi NW 24.2 mph 34.5 mph N/A   Clear
3:15 PM 69.8 °F - 32.0 °F 25% 30.03 in - NNW 26.5 mph 36.8 mph N/A   Clear
3:35 PM 69.8 °F - 32.0 °F 25% 30.02 in 10.0 mi North 26.5 mph 35.7 mph N/A   Clear
3:55 PM 69.8 °F - 32.0 °F 25% 30.03 in 10.0 mi NNW 24.2 mph 34.5 mph N/A   Clear
4:15 PM 69.8 °F - 32.0 °F 25% 30.02 in 10.0 mi NNW 26.5 mph 35.7 mph N/A   Clear
4:35 PM 68.0 °F - 30.2 °F 24% 30.03 in 10.0 mi NNW 24.2 mph 39.1 mph N/A   Clear
4:55 PM 68.0 °F - 30.2 °F 24% 30.03 in 10.0 mi NNW 27.6 mph 34.5 mph N/A   Clear
5:15 PM 68.0 °F - 30.2 °F 24% 30.04 in 10.0 mi NNW 26.5 mph 35.7 mph N/A   Clear
5:35 PM 66.2 °F - 30.2 °F 26% 30.04 in 10.0 mi NNW 25.3 mph 34.5 mph N/A   Clear
5:55 PM 66.2 °F - 30.2 °F 26% 30.04 in 10.0 mi NNW 24.2 mph 31.1 mph N/A   Clear
6:15 PM 64.4 °F - 32.0 °F 30% 30.05 in 10.0 mi NW 24.2 mph 29.9 mph N/A   Clear
6:35 PM 64.4 °F - 37.4 °F 37% 30.05 in 10.0 mi North 21.9 mph 29.9 mph N/A   Clear
6:55 PM 60.8 °F - 35.6 °F 39% 30.06 in 10.0 mi North 21.9 mph 29.9 mph N/A   Clear
7:15 PM 60.8 °F - 33.8 °F 36% 30.07 in 10.0 mi North 25.3 mph - N/A   Clear
7:35 PM 59.0 °F - 32.0 °F 36% 30.07 in 10.0 mi North 21.9 mph - N/A   Clear
7:55 PM 57.2 °F - 30.2 °F 36% 30.08 in 10.0 mi North 16.1 mph 21.9 mph N/A   Clear
8:15 PM 55.4 °F - 32.0 °F 41% 30.09 in 10.0 mi North 16.1 mph 21.9 mph N/A   Clear
8:35 PM 53.6 °F - 30.2 °F 41% 30.09 in 10.0 mi North 15.0 mph - N/A   Clear
8:55 PM 51.8 °F - 30.2 °F 44% 30.10 in 10.0 mi North 11.5 mph - N/A   Clear
9:15 PM 51.8 °F - 30.2 °F 44% 30.10 in 10.0 mi North 12.7 mph - N/A   Clear
9:35 PM 50.0 °F - 30.2 °F 47% 30.11 in 10.0 mi North 11.5 mph - N/A   Clear
9:55 PM 48.2 °F - 30.2 °F 50% 30.12 in 10.0 mi North 9.2 mph - N/A   Clear
10:15 PM 44.6 °F 39.7 °F 30.2 °F 57% 30.13 in 10.0 mi North 9.2 mph - N/A   Clear
10:35 PM 44.6 °F 39.2 °F 30.2 °F 57% 30.13 in 10.0 mi North 10.4 mph - N/A   Clear
10:55 PM 42.8 °F 38.0 °F 30.2 °F 61% 30.13 in 10.0 mi North 8.1 mph - N/A   Clear
11:15 PM 42.8 °F 37.5 °F 30.2 °F 61% 30.14 in 10.0 mi North 9.2 mph - N/A   Clear
11:55 PM 41.0 °F 36.4 °F 28.4 °F 61% 30.14 in 10.0 mi NNE 6.9 mph - N/A   Clear